TimeMST,TemperatureF,Dew PointF,Humidity,Sea Level PressureIn,VisibilityMPH,Wind Direction,Wind SpeedMPH,Gust SpeedMPH,PrecipitationIn,Events,Conditions,WindDirDegrees,DateUTC
12:53 AM,12.9,1.9,62,30.25,10.0,Calm,Calm,-,N/A,,Clear,0,2012-12-30 07:53:00
1:53 AM,10.9,1.9,67,30.26,10.0,North,3.5,-,N/A,,Clear,350,2012-12-30 08:53:00
2:53 AM,12.0,1.9,64,30.25,10.0,Calm,Calm,-,N/A,,Clear,0,2012-12-30 09:53:00
3:53 AM,8.1,1.0,73,30.25,10.0,ENE,3.5,-,N/A,,Clear,60,2012-12-30 10:53:00
4:53 AM,12.9,3.0,65,30.21,10.0,Calm,Calm,-,N/A,,Clear,0,2012-12-30 11:53:00
5:53 AM,15.1,3.0,59,30.19,10.0,Calm,Calm,-,N/A,,Clear,0,2012-12-30 12:53:00
6:53 AM,6.1,-0.0,76,30.26,10.0,NE,5.8,-,N/A,,Partly Cloudy,50,2012-12-30 13:53:00
7:53 AM,10.9,3.0,70,30.24,10.0,Calm,Calm,-,N/A,,Mostly Cloudy,0,2012-12-30 14:53:00
8:53 AM,16.0,6.1,65,30.21,10.0,Calm,Calm,-,N/A,,Scattered Clouds,0,2012-12-30 15:53:00
9:53 AM,21.0,7.0,55,30.18,10.0,Calm,Calm,-,N/A,,Clear,0,2012-12-30 16:53:00
10:53 AM,26.1,9.0,49,30.14,10.0,Calm,Calm,-,N/A,,Clear,0,2012-12-30 17:53:00
11:53 AM,33.1,12.9,43,30.08,10.0,Calm,Calm,-,N/A,,Clear,0,2012-12-30 18:53:00
12:53 PM,33.1,17.1,52,30.04,10.0,NE,3.5,-,N/A,,Scattered Clouds,40,2012-12-30 19:53:00
1:53 PM,36.0,12.0,37,30.00,10.0,ESE,5.8,-,N/A,,Scattered Clouds,110,2012-12-30 20:53:00
2:53 PM,37.0,12.0,36,29.98,10.0,East,8.1,-,N/A,,Overcast,100,2012-12-30 21:53:00
3:53 PM,36.0,14.0,41,29.99,10.0,Variable,3.5,-,N/A,,Overcast,0,2012-12-30 22:53:00
4:53 PM,30.0,16.0,56,29.96,10.0,ENE,3.5,-,N/A,,Mostly Cloudy,60,2012-12-30 23:53:00
5:53 PM,30.9,16.0,54,29.95,10.0,Calm,Calm,-,N/A,,Overcast,0,2012-12-31 00:53:00
6:53 PM,28.0,18.0,66,30.01,10.0,East,3.5,-,N/A,,Overcast,90,2012-12-31 01:53:00
7:53 PM,30.0,18.0,61,29.98,10.0,Calm,Calm,-,N/A,,Overcast,0,2012-12-31 02:53:00
8:53 PM,28.0,21.0,75,29.96,10.0,NNE,3.5,-,N/A,,Overcast,20,2012-12-31 03:53:00
9:53 PM,28.0,25.0,88,29.94,3.0,North,8.1,-,0.00,Snow,Light Snow,360,2012-12-31 04:53:00
10:00 PM,28.4,26.6,93,29.83,1.8,North,9.2,-,0.00,Snow,Light Snow,360,2012-12-31 05:00:00
10:10 PM,28.4,26.6,93,29.83,2.0,North,11.5,-,0.00,Snow,Light Snow,10,2012-12-31 05:10:00
10:23 PM,28.4,26.6,93,29.83,4.0,North,10.4,-,0.00,Snow,Light Snow,10,2012-12-31 05:23:00
10:53 PM,28.0,26.1,92,29.92,10.0,North,10.4,-,0.00,,Overcast,360,2012-12-31 05:53:00
11:53 PM,27.0,25.0,92,29.87,10.0,Calm,Calm,-,N/A,,Overcast,0,2012-12-31 06:53:00